RH
75 72 72 74 75 77 78 79 79 80 81 82 83 83 83 83 73 32 37 47 56 56 56 41 36 39 41 49 52 53 64 65 62 56 55 64 54 58 62 68 74 62 72 60 55
75 73 73 74 76 77 78 79 80 81 81 81 82 83 82 83 49 33 40 46 47 52 43 43 40 38 38 38 46 55 68 60 47 48 72 69 69 78 72 64 67 65 59 57 57
75 74 74 74 76 77 78 80 81 81 81 81 82 83 83 86 29 34 44 48 48 48 44 47 41 36 42 43 45 52 55 51 46 47 62 70 71 63 70 76 73 77 71 65 68
76 74 75 76 78 79 79 81 80 76 78 79 81 82 81 69 28 34 52 47 47 40 39 40 38 39 50 48 50 44 42 42 49 52 64 75 72 75 72 75 66 68 68 72 72
80 77 77 78 79 81 81 81 79 75 80 79 80 78 75 32 38 30 50 40 37 38 46 45 46 47 48 62 44 46 45 51 65 63 71 69 84 73 73 69 68 66 70 73 78
84 86 84 84 82 84 84 80 78 76 80 79 77 79 41 36 29 30 31 33 37 40 49 49 53 54 52 55 47 48 48 61 63 62 63 63 71 68 71 69 70 71 73 72 76
84 88 88 85 84 83 79 80 74 76 80 75 75 66 37 40 34 32 32 40 42 46 50 55 57 42 57 48 48 47 51 52 60 62 72 71 71 78 71 68 69 69 72 73 76
85 88 90 87 84 83 80 78 73 74 77 77 74 40 40 34 34 29 33 36 38 44 50 55 57 54 45 49 36 40 46 61 51 54 54 65 71 73 71 71 66 68 75 79 80
88 89 90 89 84 82 79 74 72 71 74 72 47 27 32 34 31 34 38 39 41 45 48 35 40 37 36 37 39 42 57 59 48 52 51 54 76 71 70 75 68 68 77 79 83
91 90 91 91 85 81 70 68 60 58 44 42 33 20 24 30 36 36 38 40 42 42 38 35 36 34 39 37 34 40 50 52 51 49 54 66 77 74 73 76 74 75 75 80 85
92 92 92 91 86 77 62 41 41 31 42 42 43 36 35 33 41 36 41 40 39 35 43 44 37 34 35 45 42 45 56 51 45 50 55 66 73 76 75 70 74 77 75 82 85
94 93 93 89 83 73 65 72 80 70 43 52 46 44 41 41 31 31 30 33 35 43 38 38 37 30 36 38 40 48 55 53 44 49 53 73 69 77 74 67 68 76 74 70 73
95 94 93 88 73 70 72 80 74 79 41 30 40 39 32 34 39 33 31 41 42 40 42 45 34 33 36 36 37 48 56 50 48 53 67 74 70 84 74 64 55 62 64 62 66
96 95 92 82 66 71 72 73 75 77 44 30 26 29 30 37 36 37 37 42 35 40 43 41 30 33 33 30 40 43 42 46 50 62 68 67 62 65 75 73 59 59 65 69 69
96 95 91 72 67 60 62 74 77 64 67 34 29 30 30 31 32 25 39 34 40 37 33 32 36 32 33 27 36 36 48 49 54 62 73 70 73 61 70 73 64 58 56 59 62
97 95 90 70 73 74 76 83 68 62 62 36 35 36 31 32 30 27 29 30 37 39 36 38 37 39 29 30 36 40 54 60 74 68 81 62 74 59 68 66 64 57 54 53 53
96 92 81 65 66 76 80 70 69 70 37 41 42 38 41 32 26 29 34 40 38 44 47 40 42 34 34 32 39 49 60 76 72 87 71 58 68 57 73 64 55 53 54 54 56
93 87 77 62 75 75 76 56 60 42 43 40 41 36 33 31 31 30 32 41 39 39 50 52 58 38 29 36 37 50 56 70 56 69 66 53 61 56 67 56 52 50 53 52 56
89 87 78 69 68 76 61 76 66 49 39 39 40 35 39 32 31 31 34 45 47 41 38 44 41 36 34 34 39 43 53 48 48 72 73 59 51 67 60 58 54 53 52 55 56
96 86 83 65 68 69 67 71 52 40 39 38 43 37 44 36 37 35 35 34 48 41 40 40 42 40 37 37 41 48 40 54 65 64 67 61 55 74 74 65 58 56 54 55 55
84 82 76 66 72 68 76 76 45 38 41 41 44 44 41 39 40 38 33 33 44 46 44 51 44 41 39 41 41 42 53 48 51 56 65 67 55 71 74 65 62 54 50 52 53
93 72 75 72 76 91 75 56 51 44 43 42 42 42 42 42 43 40 37 32 43 39 38 45 47 51 37 39 38 36 40 41 57 66 58 57 63 74 76 63 56 54 48 50 49
96 95 79 72 88 90 76 59 45 46 45 45 46 45 44 45 46 41 37 40 42 42 39 39 47 56 53 55 48 43 38 42 47 66 85 81 74 72 68 61 56 52 48 49 52
94 84 83 73 73 78 73 72 57 47 44 44 43 43 48 54 40 49 44 43 46 40 51 40 47 43 63 56 49 52 49 48 49 90 66 68 58 57 70 66 54 48 48 49 50
97 94 87 88 86 71 67 59 60 66 52 47 53 46 55 72 57 46 41 47 58 49 59 43 53 56 46 46 48 44 45 46 56 46 58 48 58 46 53 64 58 46 45 48 52
94 93 80 90 73 76 77 80 66 67 58 60 56 51 45 59 60 71 63 70 62 56 50 53 58 65 63 53 57 66 60 59 58 55 56 54 58 49 65 65 57 48 46 49 50
80 63 89 89 76 82 84 77 73 63 67 53 54 61 67 60 51 46 51 54 62 47 47 50 60 61 75 82 82 82 67 63 70 75 72 80 69 72 73 65 59 53 48 49 52
Wind_Speed
14 15 16 15 15 13 13 12 11 10 10 9 9 9 10 12 10 4 5 4 7 13 7 5 5 7 5 5 5 3 6 3 1 2 1 7 5 6 1 4 4 5 2 8 16
16 17 17 17 16 15 14 13 12 10 9 8 7 7 8 8 3 7 4 7 10 11 6 9 7 7 5 5 4 6 5 2 4 3 5 6 6 4 4 7 5 17 12 13 15
16 17 17 17 16 15 14 13 11 9 6 5 4 5 5 5 4 4 7 9 11 8 2 1 2 4 6 4 6 2 4 3 3 6 8 5 6 5 6 4 4 17 21 22 22
17 18 18 18 17 16 15 13 11 9 6 2 2 3 4 1 2 4 8 11 10 7 5 6 7 5 5 5 4 6 3 3 1 4 5 4 7 4 9 4 13 14 13 14 19
17 19 19 18 17 16 15 12 10 9 6 3 2 2 1 8 3 5 8 9 4 4 6 5 6 3 4 2 2 4 2 5 5 9 7 9 5 4 7 10 11 10 13 16 15
19 20 20 19 17 15 13 11 7 8 6 4 3 3 2 7 4 6 6 5 5 5 6 7 3 2 5 3 3 1 3 7 5 5 3 6 4 3 5 11 11 12 14 13 15
20 20 21 22 19 15 15 9 4 6 6 5 4 2 10 2 1 4 5 2 3 2 3 2 2 3 1 3 3 2 4 3 3 5 5 5 5 2 6 11 15 17 16 15 15
19 20 21 22 21 18 16 5 3 4 4 3 3 3 4 2 1 4 6 3 4 4 3 2 4 5 4 1 6 5 5 3 0 5 4 6 3 1 6 10 13 14 13 12 15
18 19 20 22 21 17 13 3 2 2 2 4 3 5 2 4 4 4 3 3 4 3 4 3 5 4 6 4 5 7 2 1 5 4 3 1 2 2 5 5 8 11 13 14 14
16 18 19 20 20 18 8 2 4 2 3 1 2 5 5 3 4 3 2 2 3 2 5 8 6 4 5 7 1 3 3 3 5 2 5 2 2 3 4 5 7 9 11 14 15
16 17 19 18 17 17 6 4 7 6 11 4 1 2 3 6 2 2 2 2 3 8 4 4 7 2 3 1 1 1 2 4 5 2 1 2 3 3 4 4 6 9 11 14 15
15 17 18 19 9 15 5 7 2 2 4 1 2 2 3 2 4 4 3 4 5 3 2 6 2 2 1 2 2 0 2 4 4 1 1 4 7 5 1 2 4 7 9 12 15
14 16 18 19 3 6 7 3 3 1 3 3 2 2 3 3 2 5 4 1 4 3 3 4 2 0 1 1 4 3 3 3 4 2 1 2 5 4 3 2 5 6 6 9 11
13 14 19 19 6 2 4 4 1 1 6 9 6 3 2 2 3 2 2 2 3 1 1 1 2 1 1 2 3 3 4 3 3 2 4 1 6 5 5 3 3 6 7 7 10
13 11 14 11 1 4 4 3 2 2 5 5 6 2 5 4 4 6 3 3 1 3 4 2 2 3 2 2 3 7 1 4 2 3 2 2 1 2 4 4 2 4 5 7 7
12 11 11 3 3 1 3 1 2 8 3 5 3 7 5 5 6 7 5 7 0 2 3 2 3 1 2 3 2 5 2 3 3 1 1 2 4 4 5 5 3 1 5 6 7
13 13 2 1 0 0 1 3 6 7 2 5 4 5 2 5 5 6 5 7 5 6 7 7 2 3 1 5 3 8 5 4 5 3 5 3 2 6 3 2 4 5 4 4 5
15 7 2 1 1 1 2 5 7 2 1 1 3 4 4 6 3 8 3 4 3 4 2 4 8 3 3 1 2 3 2 4 5 3 5 1 6 2 3 5 5 5 5 4 5
12 3 2 2 1 2 4 7 3 2 2 5 4 5 5 4 4 7 3 0 1 2 3 4 6 4 0 1 3 2 1 2 2 2 2 4 3 2 3 4 5 6 5 5 4
3 3 3 5 2 3 6 2 0 2 3 2 3 3 4 5 6 6 3 2 1 0 2 2 5 2 4 1 1 2 2 2 2 5 6 5 5 5 7 10 8 8 6 6 4
3 4 3 6 2 6 5 1 1 1 2 3 1 2 2 3 1 3 3 2 1 0 1 2 3 6 3 3 3 1 1 1 1 3 3 5 7 5 6 10 13 10 7 6 5
2 3 4 3 5 2 2 1 1 1 2 2 2 1 1 2 2 2 2 2 2 0 2 1 4 5 9 2 2 2 3 5 4 5 4 2 9 2 4 5 11 10 8 6 5
2 2 3 3 4 3 4 2 0 1 1 1 1 1 0 2 4 1 3 2 3 2 1 2 2 5 9 3 2 3 5 5 2 2 7 4 8 1 2 3 7 12 9 7 7
3 3 5 6 1 4 2 2 3 2 1 1 0 1 1 1 2 3 3 2 2 3 4 3 3 8 8 6 2 7 7 6 7 5 6 17 19 12 5 7 8 9 12 10 7
4 1 1 3 4 2 1 2 2 3 1 1 1 2 3 2 3 3 3 5 3 6 1 1 5 5 10 9 7 17 19 11 13 18 11 24 14 18 9 14 16 15 12 12 9
2 2 2 0 2 1 2 2 2 3 2 1 3 1 5 5 7 10 4 2 7 1 3 0 5 2 9 12 9 13 18 14 15 16 16 21 25 14 5 4 9 15 16 13 10
1 1 4 1 1 1 3 2 2 0 2 3 4 3 5 9 7 9 7 7 9 5 3 3 2 3 7 3 8 11 12 9 4 5 6 7 7 2 1 3 6 9 11 11 9
Wind_Direction
0 357 353 352 347 343 337 333 333 329 321 322 327 331 334 335 325 38 40 283 318 329 343 310 14 12 43 56 45 86 62 109 136 89 44 358 39 360 330 16 27 43 23 316 320
359 358 354 352 349 346 340 337 333 330 320 319 320 318 322 337 66 55 302 327 335 351 20 29 2 357 49 24 32 74 88 121 171 131 96 62 57 337 19 20 333 326 314 320 320
356 356 354 353 349 343 341 341 338 341 330 317 306 305 325 326 77 339 326 336 337 354 10 76 27 43 47 26 353 61 121 171 67 113 138 116 64 33 356 12 355 316 319 332 331
356 354 351 351 349 342 340 341 345 353 356 348 319 322 315 13 85 305 343 342 344 351 30 30 28 47 63 51 334 88 75 109 93 127 113 98 123 95 62 285 302 305 314 318 338
357 353 351 351 350 341 340 342 348 2 5 23 40 357 267 49 36 324 347 350 12 22 45 41 44 67 73 62 42 70 62 56 98 89 81 93 51 124 23 337 316 331 336 341 343
359 353 350 351 349 339 341 342 355 14 38 51 52 350 66 74 300 337 335 348 18 41 23 38 64 62 95 69 79 280 102 150 146 118 86 104 64 74 341 329 349 355 348 345 345
358 353 351 349 345 345 347 344 10 34 53 58 21 34 62 127 335 320 21 7 359 36 68 46 84 72 124 93 318 93 90 140 165 182 148 126 59 39 307 348 5 354 350 344 345
357 355 352 349 341 345 349 9 57 47 61 39 2 61 87 294 243 17 344 2 1 34 74 56 68 98 51 136 24 46 45 21 332 150 360 167 248 258 359 2 0 347 347 345 353
356 353 352 349 339 341 342 55 56 9 9 339 49 85 32 326 26 316 5 355 334 26 28 59 60 70 32 52 20 15 268 289 315 2 133 253 207 340 8 344 350 338 353 349 356
353 349 349 349 339 337 340 343 348 56 349 6 62 47 4 292 289 332 317 32 34 357 20 39 44 54 31 48 301 285 341 309 259 304 44 65 172 309 353 343 346 327 357 358 357
349 346 344 350 339 345 16 19 19 353 38 85 155 140 301 288 288 356 6 48 28 52 35 9 66 352 281 190 204 282 238 259 261 178 120 243 199 239 332 0 358 357 3 2 3
346 345 344 346 342 358 38 64 42 266 68 205 256 280 257 313 5 342 17 65 55 52 354 23 99 244 229 50 22 88 265 283 287 101 255 191 247 215 340 12 31 7 360 1 355
346 345 342 345 45 41 70 54 316 82 91 354 6 351 325 19 344 312 35 59 68 46 27 144 233 266 174 353 357 279 203 240 228 300 141 151 268 199 202 127 31 22 1 12 3
343 348 348 338 61 308 55 322 13 112 77 325 351 6 357 24 357 347 25 66 28 77 76 244 330 352 335 280 143 297 226 244 265 59 249 271 291 227 186 205 35 15 5 356 356
336 350 353 20 215 52 305 343 129 69 55 308 313 303 338 62 326 355 347 23 64 327 82 299 347 348 327 277 179 242 302 256 247 202 21 217 8 261 145 221 289 18 5 10 358
333 343 343 22 46 114 333 18 63 46 278 335 325 353 25 16 349 322 17 37 41 73 11 292 290 238 270 303 225 330 352 32 38 89 326 214 155 259 194 190 162 131 31 11 5
332 329 14 124 292 293 73 51 41 94 347 319 328 9 329 327 358 33 23 10 33 23 9 335 321 306 339 331 33 30 33 338 354 2 236 156 148 262 165 157 157 156 98 37 8
324 329 359 86 348 106 84 51 70 238 273 11 345 324 30 9 17 353 47 23 16 48 53 28 339 0 357 31 306 8 94 129 300 301 291 140 237 278 139 119 114 121 124 81 31
326 349 39 291 339 99 68 52 177 220 314 351 337 47 334 11 11 16 26 132 257 47 43 19 281 308 120 29 110 337 29 194 245 252 308 249 294 129 132 165 169 168 152 132 99
15 352 292 326 11 67 67 136 62 10 358 34 17 33 343 328 18 29 336 304 359 116 137 215 297 267 291 349 88 175 193 355 10 318 299 293 275 256 220 216 205 197 185 158 140
28 39 269 339 91 49 93 179 342 54 22 32 338 327 353 325 329 301 286 303 306 275 110 144 140 285 336 196 192 341 301 116 166 174 257 303 266 192 214 199 199 197 179 167 155
54 24 307 360 49 43 89 278 295 18 36 57 108 182 224 308 290 294 291 258 319 357 336 257 162 273 242 247 279 203 229 157 131 286 254 222 265 31 296 246 169 164 162 158 156
61 283 322 54 87 9 316 333 185 356 48 31 42 201 28 303 325 227 326 319 333 341 355 187 283 319 329 6 16 226 212 200 99 109 201 240 257 78 37 131 152 154 159 161 156
75 19 333 46 42 112 22 337 321 354 30 63 318 73 41 297 224 280 287 270 295 230 206 185 212 197 228 233 182 254 242 210 196 211 244 236 269 262 228 230 177 176 160 160 173
25 65 176 338 1 47 17 334 322 323 57 72 338 226 184 276 299 254 241 302 302 344 110 169 247 211 264 267 255 264 262 244 221 247 241 276 260 267 230 209 203 177 159 155 170
86 86 20 61 330 16 345 231 223 288 206 260 215 224 180 209 214 280 254 181 245 347 187 176 275 230 276 248 266 271 264 248 241 251 250 261 268 290 307 146 150 169 167 167 172
177 70 105 333 23 78 240 224 262 235 262 209 212 284 248 246 250 256 227 225 235 197 196 244 268 324 269 341 302 279 267 212 201 188 182 220 245 357 323 266 165 158 161 159 156